DELTA 1 DEB, 7058

Orbit data source: Space-Track

DELTA 1 DEB, 7058 is space debris in SSO originally from a launch on Tue, 06 Nov 1973 UTC launched from the Air Force Western Test Range (AFWTR). Debris objects in space refer to the collection of defunct objects orbiting the Earth. Examples of debris include non-operational satellites, rocket bodies, and fragments generated from explosions, collisions, or faulty payload assembly.

Loading next visibility...
Identifier
7058, 1973-086BA
Orbit
SSO
Country
Flag of USUS
Related business
Manufacturer
Unknown
Mission
Spacecraft
Bus & Motor
Unknown
Mass
Unknown
Launch date (UTC)
1973-11-06 (53 years ago)
Launch vehicle
Unknown
Launch site
Air Force Western Test Range (AFWTR)
Object type
Payload
Rocket body
Debris
Shape & HBR
Unknown shape, 0.2 m
Radar Cross Section
Medium (>0.1 m² and <1 m²)

Expand to show TLE details & history
Last TLE update: 2 days ago

TLE from 2 days ago
0 DELTA 1 DEB
1  7058U 73086BA  26171.46358019  .00000413  00000-0  28296-2 0  9994
2  7058 101.8426 159.9512 0010091  51.5635 102.3785 12.54888698399570
Epoch: 2026-06-20T11:07Z
TLE epoch observation values (Epoch: 2026-06-20T11:07:33.328Z)
Latitude
25.38361°
Longitude
-89.9337°
Altitude
1,448.592 km
Speed
7.139 km/s
True Right ascension
23h 02m 31s
True Declination
25° 15' 45"
Sunlit
Object was in daylight at epoch
Visualization orbit readout
Latitude
Unknown
Longitude
Unknown
Altitude
Unknown
Speed
Unknown
Apparent Right ascension
Unknown
Apparent Declination
Unknown
Sunlit
N/A
Visualization observer readout
Local Sidereal Time
00:50:09
Azimuth
Unknown
Elevation
Unknown
Doppler factor
Unknown
Orbital elements
Apogee altitude
1,449.55 km
Perigee altitude
1,433.768 km
Semi-major axis
7,819.796 km
Eccentricity
0.00101
Inclination
101.8426°
RAAN
159.9512°
Arg. of periapsis
51.5635°
True anomaly
102.49142°
Mean anomaly
102.3785°
Eccentric anomaly
102.43496°
Mean motion
3.1387 °/min
Orbital period
114.7 mins
BSTAR
0.0028296
Loading maneuver chart data...
Computing Atmospheric mass density...
Loading historical data...
Loading historical data...
Loading historical data...
Loading historical data...
Loading historical data...
Loading historical data...
Loading historical data...

Documentation

Showing up to 5 results
|